Weather History for Shawnee, OK

Change the Weather History Date:

Wednesday, March 13, 2013

  Actual Average (KTIK) Record (KTIK)
Temperature  
Mean Temperature 48 °F -  
Max Temperature 64 °F 57 °F 79 °F (2012)
Min Temperature 33 °F 37 °F 28 °F (1998)
Degree Days  
Heating Degree Days 16    
Moisture  
Dew Point 33 °F    
Average Humidity 55    
Maximum Humidity 93    
Minimum Humidity 32    
Precipitation  
Precipitation 0.00 in - - ()
Sea Level Pressure  
Sea Level Pressure 30.40 in    
Wind  
Wind Speed 3 mph (SE)    
Max Wind Speed 12 mph    
Max Gust Speed 16 mph    
Visibility 10 miles    
Events      
Averages and records for this station are not official NWS values.
T = Trace of Precipitation, MM = Missing Value Source: NWS Daily Summary

Daily Weather History Graph

Daily Weather History Graph

Search for Another Location

Airport:

Trip Planner

Search our weather history database for the weather conditions in past years. The results will help you decide how hot, cold, wet, or windy it might be!

Date:

Astronomy

Mar. 13, 2013 Rise Set
Actual Time 7:40 AM CDT 7:33 PM CDT
Civil Twilight 7:15 AM CDT 7:59 PM CDT
Nautical Twilight 6:46 AM CDT 8:28 PM CDT
Astronomical Twilight 6:16 AM CDT 8:58 PM CDT
Moon 8:26 AM CDT (3/13) 9:44 PM CDT (3/13)
Length of Visible Light 12h 43m
Length of Day
11h 53m
Waxing Crescent, 4% of the Moon is Illuminated
Mar 13
Waxing Crescent
Mar 19
First Quarter
Mar 27
Full
Apr 2
Last Quarter
Apr 10
New

Hourly Weather History & Observations

Time (CDT) Temp. Windchill Dew Point Humidity Pressure Visibility Wind Dir Wind Speed Gust Speed Precip Events Conditions
12:15 AM 46.4 °F - 33.8 °F 62% 30.36 in 10.0 mi Calm Calm - N/A   Clear
12:35 AM 46.4 °F 45.2 °F 33.8 °F 62% 30.37 in 10.0 mi NNE 3.5 mph - N/A   Clear
12:55 AM 44.6 °F - 33.8 °F 66% 30.37 in 10.0 mi Calm Calm - N/A   Clear
1:15 AM 44.6 °F - 33.8 °F 66% 30.38 in 10.0 mi Calm Calm - N/A   Clear
1:35 AM 44.6 °F 43.1 °F 33.8 °F 66% 30.38 in 10.0 mi NNE 3.5 mph - N/A   Clear
1:55 AM 44.6 °F 42.2 °F 33.8 °F 66% 30.38 in 10.0 mi NE 4.6 mph - N/A   Clear
2:15 AM 44.6 °F - 32.0 °F 61% 30.39 in 10.0 mi Calm Calm - N/A   Clear
2:35 AM 42.8 °F - 32.0 °F 66% 30.40 in 10.0 mi Calm Calm - N/A   Clear
2:55 AM 42.8 °F 41.1 °F 32.0 °F 66% 30.40 in 10.0 mi NE 3.5 mph - N/A   Clear
3:15 AM 42.8 °F - 32.0 °F 66% 30.40 in 10.0 mi Calm Calm - N/A   Clear
3:35 AM 39.2 °F - 32.0 °F 75% 30.40 in 10.0 mi Calm Calm - N/A   Clear
3:55 AM 35.6 °F - 33.8 °F 93% 30.40 in 10.0 mi Calm Calm - N/A   Clear
4:15 AM 37.4 °F - 33.8 °F 87% 30.40 in 10.0 mi Calm Calm - N/A   Clear
4:35 AM 35.6 °F - 32.0 °F 87% 30.40 in 10.0 mi Calm Calm - N/A   Clear
4:55 AM 35.6 °F 32.8 °F 33.8 °F 93% 30.39 in 10.0 mi NE 3.5 mph - N/A   Clear
5:15 AM 41.0 °F 38.0 °F 30.2 °F 65% 30.39 in 10.0 mi NE 4.6 mph - N/A   Clear
5:35 AM 41.0 °F - 32.0 °F 70% 30.40 in 10.0 mi Calm Calm - N/A   Clear
5:55 AM 35.6 °F - 32.0 °F 87% 30.41 in 10.0 mi Calm Calm - N/A   Clear
6:15 AM 35.6 °F - 33.8 °F 93% 30.41 in 10.0 mi Calm Calm - N/A   Clear
6:35 AM 35.6 °F - 33.8 °F 93% 30.42 in 10.0 mi Calm Calm - N/A   Clear
7:15 AM 33.8 °F - 32.0 °F 93% 30.43 in 10.0 mi Calm Calm - N/A   Clear
7:35 AM 35.6 °F - 33.8 °F 93% 30.43 in 10.0 mi Calm Calm - N/A   Clear
7:55 AM 35.6 °F - 32.0 °F 87% 30.44 in 10.0 mi Calm Calm - N/A   Clear
8:15 AM 35.6 °F - 32.0 °F 87% 30.44 in 10.0 mi Calm Calm - N/A   Clear
8:35 AM 35.6 °F - 33.8 °F 93% 30.45 in 10.0 mi Calm Calm - N/A   Clear
8:55 AM 37.4 °F - 35.6 °F 93% 30.45 in 10.0 mi Calm Calm - N/A   Clear
9:15 AM 42.8 °F 40.1 °F 32.0 °F 66% 30.45 in 10.0 mi ESE 4.6 mph - N/A   Clear
9:35 AM 44.6 °F 41.4 °F 30.2 °F 57% 30.45 in 10.0 mi East 5.8 mph - N/A   Clear
9:55 AM 46.4 °F 44.3 °F 30.2 °F 53% 30.47 in 10.0 mi ESE 4.6 mph - N/A   Clear
10:15 AM 48.2 °F - 30.2 °F 50% 30.47 in 10.0 mi East 4.6 mph - N/A   Clear
10:35 AM 51.8 °F - 30.2 °F 44% 30.47 in 10.0 mi East 6.9 mph - N/A   Clear
10:55 AM 51.8 °F - 28.4 °F 41% 30.48 in 10.0 mi Calm Calm - N/A   Scattered Clouds
11:15 AM 51.8 °F - 30.2 °F 44% 30.48 in 10.0 mi East 5.8 mph - N/A   Scattered Clouds
11:35 AM 53.6 °F - 30.2 °F 41% 30.48 in 10.0 mi SE 4.6 mph - N/A   Scattered Clouds
11:55 AM 53.6 °F - 30.2 °F 41% 30.48 in 10.0 mi ESE 5.8 mph - N/A   Clear
12:15 PM 53.6 °F - 28.4 °F 38% 30.48 in 10.0 mi East 3.5 mph - N/A   Clear
12:35 PM 55.4 °F - 30.2 °F 38% 30.47 in 10.0 mi Calm Calm - N/A   Clear
12:55 PM 55.4 °F - 30.2 °F 38% 30.46 in 10.0 mi Calm Calm - N/A   Clear
1:15 PM 57.2 °F - 32.0 °F 38% 30.46 in 10.0 mi Calm Calm - N/A   Mostly Cloudy
1:35 PM 59.0 °F - 32.0 °F 36% 30.44 in 10.0 mi ESE 8.1 mph - N/A   Overcast
1:55 PM 59.0 °F - 32.0 °F 36% 30.44 in 10.0 mi ESE 4.6 mph - N/A   Overcast
2:15 PM 59.0 °F - 32.0 °F 36% 30.43 in 10.0 mi South 8.1 mph - N/A   Mostly Cloudy
2:35 PM 59.0 °F - 32.0 °F 36% 30.42 in 10.0 mi South 5.8 mph - N/A   Overcast
2:55 PM 59.0 °F - 32.0 °F 36% 30.41 in 10.0 mi SSE 8.1 mph - N/A   Overcast
3:15 PM 60.8 °F - 32.0 °F 34% 30.40 in 10.0 mi SSE 4.6 mph - N/A   Overcast
3:35 PM 62.6 °F - 32.0 °F 32% 30.39 in 10.0 mi ESE 9.2 mph - N/A   Scattered Clouds
4:15 PM 62.6 °F - 33.8 °F 34% 30.37 in 10.0 mi SE 8.1 mph - N/A   Clear
4:35 PM 62.6 °F - 33.8 °F 34% 30.36 in 10.0 mi SSW 8.1 mph - N/A   Clear
4:55 PM 64.4 °F - 33.8 °F 32% 30.36 in 10.0 mi South 4.6 mph - N/A   Clear
5:15 PM 62.6 °F - 33.8 °F 34% 30.35 in 10.0 mi South 10.4 mph - N/A   Clear
5:35 PM 64.4 °F - 33.8 °F 32% 30.35 in 10.0 mi South 9.2 mph - N/A   Clear
5:55 PM 64.4 °F - 33.8 °F 32% 30.34 in 10.0 mi South 9.2 mph - N/A   Clear
6:15 PM 62.6 °F - 35.6 °F 37% 30.34 in 10.0 mi South 11.5 mph 16.1 mph N/A   Clear
6:35 PM 62.6 °F - 35.6 °F 37% 30.34 in 10.0 mi South 9.2 mph - N/A   Clear
6:55 PM 62.6 °F - 35.6 °F 37% 30.34 in 10.0 mi South 6.9 mph - N/A   Clear
7:15 PM 60.8 °F - 35.6 °F 39% 30.34 in 10.0 mi SSE 4.6 mph - N/A   Clear
7:35 PM 59.0 °F - 35.6 °F 42% 30.34 in 10.0 mi South 5.8 mph - N/A   Clear
7:55 PM 59.0 °F - 33.8 °F 39% 30.33 in 10.0 mi SSE 4.6 mph - N/A   Clear
8:15 PM 57.2 °F - 33.8 °F 41% 30.33 in 10.0 mi SE 5.8 mph - N/A   Clear
8:35 PM 59.0 °F - 33.8 °F 39% 30.33 in 10.0 mi SE 5.8 mph - N/A   Clear
8:55 PM 55.4 °F - 33.8 °F 44% 30.33 in 10.0 mi ESE 9.2 mph - N/A   Clear
9:15 PM 53.6 °F - 33.8 °F 47% 30.33 in 10.0 mi ESE 8.1 mph - N/A   Clear
9:35 PM 51.8 °F - 32.0 °F 47% 30.33 in 10.0 mi ESE 8.1 mph - N/A   Clear
9:55 PM 51.8 °F - 32.0 °F 47% 30.33 in 10.0 mi ESE 9.2 mph - N/A   Clear
10:15 PM 51.8 °F - 32.0 °F 47% 30.34 in 10.0 mi ESE 10.4 mph - N/A   Clear
10:35 PM 51.8 °F - 32.0 °F 47% 30.35 in 10.0 mi ESE 9.2 mph - N/A   Clear
10:55 PM 51.8 °F - 30.2 °F 44% 30.35 in 10.0 mi SE 11.5 mph - N/A   Clear
11:15 PM 51.8 °F - 32.0 °F 47% 30.35 in 10.0 mi SE 10.4 mph - N/A   Clear
11:35 PM 51.8 °F - 32.0 °F 47% 30.34 in 10.0 mi SE 10.4 mph - N/A   Clear
11:55 PM 50.0 °F - 32.0 °F 50% 30.34 in 10.0 mi SE 10.4 mph - N/A   Clear